Total_Precipitation_Accumulation
0.00 0.01 0.07 0.19 0.39 0.77 0.91 0.56 0.42 0.32 0.33 0.39 0.42 0.39 0.38 0.36 0.51 0.54 0.22 0.08 0.03 0.00 0.01 0.05 0.13 0.14 0.11 0.10 0.11 0.12 0.11 0.10 0.10 0.08 0.07 0.05 0.04 0.04 0.03 0.03 0.03 0.03 0.04 0.04 0.05 0.04 0.04 0.03 0.03
0.00 0.01 0.06 0.15 0.43 0.86 0.90 0.52 0.37 0.30 0.34 0.35 0.32 0.36 0.43 0.42 0.29 0.17 0.14 0.07 0.02 0.01 0.01 0.01 0.08 0.13 0.13 0.11 0.12 0.12 0.10 0.09 0.08 0.08 0.06 0.05 0.04 0.03 0.03 0.03 0.03 0.04 0.05 0.05 0.05 0.04 0.03 0.03 0.03
0.00 0.01 0.04 0.11 0.29 0.57 0.61 0.43 0.34 0.27 0.36 0.51 0.43 0.35 0.39 0.40 0.27 0.15 0.09 0.04 0.02 0.01 0.01 0.02 0.06 0.10 0.13 0.13 0.13 0.12 0.10 0.09 0.07 0.06 0.05 0.04 0.03 0.03 0.04 0.04 0.04 0.05 0.06 0.07 0.06 0.04 0.04 0.02 0.02
0.00 0.02 0.04 0.08 0.14 0.26 0.33 0.34 0.33 0.36 0.55 0.69 0.55 0.35 0.30 0.25 0.22 0.11 0.04 0.01 0.01 0.01 0.01 0.04 0.08 0.10 0.12 0.13 0.13 0.11 0.09 0.07 0.07 0.06 0.05 0.04 0.04 0.05 0.05 0.06 0.06 0.06 0.08 0.10 0.09 0.06 0.05 0.04 0.03
0.00 0.01 0.04 0.07 0.11 0.16 0.19 0.25 0.39 0.42 0.64 0.70 0.50 0.40 0.33 0.21 0.18 0.08 0.03 0.02 0.02 0.02 0.03 0.05 0.10 0.12 0.12 0.13 0.13 0.12 0.10 0.08 0.07 0.06 0.06 0.06 0.06 0.08 0.09 0.10 0.10 0.10 0.11 0.13 0.13 0.11 0.08 0.06 0.05
0.00 0.01 0.02 0.03 0.05 0.08 0.13 0.21 0.35 0.47 0.64 0.71 0.55 0.57 0.38 0.27 0.20 0.10 0.05 0.03 0.03 0.03 0.03 0.05 0.10 0.14 0.15 0.15 0.15 0.15 0.13 0.11 0.10 0.09 0.09 0.09 0.10 0.11 0.14 0.15 0.16 0.17 0.18 0.18 0.17 0.15 0.12 0.09 0.07
0.00 0.01 0.01 0.01 0.02 0.07 0.13 0.21 0.38 0.51 0.65 0.84 0.75 0.70 0.47 0.38 0.30 0.20 0.09 0.05 0.05 0.05 0.05 0.06 0.07 0.10 0.14 0.18 0.18 0.17 0.16 0.15 0.14 0.13 0.12 0.12 0.12 0.13 0.15 0.18 0.19 0.20 0.22 0.22 0.21 0.21 0.20 0.18 0.13
0.00 0.00 0.01 0.00 0.01 0.04 0.11 0.22 0.36 0.50 0.72 0.82 0.71 0.71 0.60 0.41 0.36 0.26 0.15 0.11 0.10 0.08 0.08 0.09 0.10 0.14 0.13 0.14 0.15 0.17 0.16 0.15 0.14 0.15 0.16 0.17 0.16 0.18 0.22 0.25 0.26 0.28 0.28 0.28 0.29 0.32 0.33 0.29 0.23
0.00 0.00 0.00 0.00 0.01 0.03 0.12 0.28 0.41 0.44 0.55 0.80 0.99 0.78 0.59 0.46 0.47 0.38 0.28 0.24 0.18 0.17 0.17 0.15 0.17 0.17 0.20 0.19 0.20 0.26 0.27 0.27 0.28 0.31 0.30 0.34 0.45 0.52 0.58 0.49 0.49 0.50 0.55 0.57 0.56 0.56 0.59 0.56 0.40
0.00 0.00 0.00 0.00 0.00 0.03 0.13 0.33 0.48 0.56 0.72 0.94 1.12 0.97 0.73 0.57 0.62 0.65 0.50 0.36 0.29 0.28 0.30 0.29 0.25 0.24 0.28 0.33 0.39 0.60 0.64 0.72 0.76 0.84 0.84 0.89 0.82 0.70 0.59 0.62 0.76 0.83 0.99 1.10 1.20 1.29 1.12 0.91 0.76
0.00 0.00 0.00 0.00 0.00 0.05 0.17 0.19 0.27 0.51 0.97 1.26 1.45 1.15 0.87 0.77 0.76 0.87 0.78 0.57 0.49 0.48 0.42 0.43 0.39 0.38 0.45 0.58 0.63 0.76 0.87 1.02 1.10 1.07 1.15 1.25 1.09 0.91 0.81 0.93 1.11 1.21 1.37 1.48 1.78 1.94 1.42 1.37 1.50
0.00 0.00 0.00 0.00 0.00 0.02 0.09 0.17 0.31 0.59 1.00 1.19 1.09 0.97 0.88 0.93 0.88 0.97 0.96 0.81 0.74 0.66 0.61 0.71 0.67 0.62 0.67 0.76 0.86 0.82 0.80 0.89 1.03 1.12 1.16 1.33 1.24 1.13 1.16 1.19 1.25 1.47 1.63 1.87 1.89 2.04 2.03 2.04 1.92
0.00 0.00 0.00 0.00 0.01 0.02 0.07 0.17 0.28 0.49 0.72 0.75 0.61 0.73 1.03 1.07 1.05 1.18 1.18 1.06 0.97 0.94 0.95 0.95 0.96 0.99 1.08 1.09 1.05 0.84 0.81 0.81 0.84 0.96 1.02 1.29 1.50 1.47 1.58 1.41 1.36 1.24 1.54 1.92 2.13 2.18 2.34 2.42 2.37
0.00 0.00 0.01 0.01 0.02 0.02 0.06 0.13 0.29 0.64 0.64 0.56 0.63 0.83 1.02 1.30 1.21 1.31 1.42 1.29 1.18 1.24 1.36 1.38 1.44 1.46 1.47 1.34 1.20 1.07 0.93 0.88 0.84 0.94 1.12 1.58 1.75 1.66 1.72 1.67 1.58 1.35 1.51 1.85 2.20 2.28 2.49 2.44 2.47
0.00 0.02 0.07 0.06 0.04 0.05 0.08 0.29 0.52 0.68 0.65 0.61 0.76 0.87 1.10 1.46 1.44 1.50 1.57 1.47 1.48 1.63 1.77 1.90 1.98 1.87 1.83 1.70 1.42 1.18 0.97 0.83 0.93 1.12 1.33 1.63 1.79 1.88 2.06 1.95 1.64 1.49 1.67 1.87 1.90 2.02 2.47 2.31 2.25
0.01 0.05 0.21 0.14 0.05 0.06 0.13 0.51 0.70 0.73 0.74 0.75 0.83 1.04 1.18 1.44 1.40 1.37 1.45 1.58 1.75 2.02 2.39 2.59 2.60 2.59 2.52 2.15 1.80 1.54 1.34 1.23 1.31 1.41 1.38 1.36 1.53 1.71 1.89 1.62 1.31 1.48 1.76 1.90 1.81 1.81 2.17 2.21 2.19
0.05 0.08 0.16 0.14 0.08 0.08 0.16 0.53 0.57 0.46 0.73 1.00 1.11 1.23 1.20 1.27 1.37 1.38 1.43 1.68 2.03 2.43 2.91 3.29 3.43 3.22 2.87 2.31 1.88 1.53 1.53 1.51 1.49 1.41 1.23 1.10 1.03 1.08 1.19 1.03 0.98 1.21 1.48 1.48 1.32 1.44 1.71 1.79 1.86
0.04 0.07 0.13 0.16 0.13 0.13 0.24 0.47 0.59 0.48 0.67 0.89 0.94 1.20 1.22 1.18 1.27 1.42 1.53 1.72 2.11 2.53 3.02 3.36 3.52 3.18 2.60 2.20 2.01 1.70 1.53 1.42 1.38 1.24 1.02 0.83 0.77 0.75 0.83 0.82 0.79 0.88 0.92 0.94 1.10 1.25 1.39 1.29 1.35
0.03 0.06 0.14 0.16 0.14 0.21 0.34 0.58 0.70 0.62 0.63 0.66 0.74 0.94 0.94 0.96 1.09 1.35 1.57 1.79 2.25 2.85 3.37 3.52 3.26 2.56 2.08 1.77 1.62 1.41 1.22 1.05 0.95 0.87 0.78 0.69 0.69 0.64 0.64 0.61 0.63 0.69 0.69 0.68 0.83 0.95 0.96 0.79 0.95
0.04 0.08 0.16 0.15 0.11 0.13 0.32 0.61 0.68 0.69 0.73 0.66 0.69 0.77 0.68 0.74 0.97 1.39 1.85 2.22 2.59 2.83 2.95 2.78 2.38 1.75 1.35 1.12 0.97 0.78 0.64 0.57 0.55 0.52 0.52 0.53 0.54 0.54 0.53 0.50 0.48 0.49 0.52 0.54 0.60 0.71 0.71 0.63 0.74
0.07 0.08 0.13 0.16 0.12 0.13 0.32 0.69 0.78 0.74 0.71 0.64 0.53 0.53 0.62 0.76 1.21 1.84 2.40 2.72 2.70 2.52 2.12 1.64 1.26 0.94 0.81 0.66 0.54 0.40 0.33 0.29 0.28 0.29 0.31 0.33 0.33 0.33 0.33 0.32 0.32 0.34 0.39 0.42 0.49 0.57 0.59 0.54 0.52
0.08 0.06 0.05 0.06 0.10 0.29 0.41 0.78 0.80 0.79 0.73 0.52 0.49 0.56 0.66 0.87 1.36 1.98 2.36 2.30 2.15 1.81 1.32 0.99 0.80 0.60 0.50 0.42 0.40 0.34 0.27 0.25 0.25 0.23 0.24 0.24 0.22 0.23 0.23 0.21 0.21 0.22 0.25 0.33 0.35 0.44 0.55 0.54 0.43
0.05 0.04 0.04 0.07 0.15 0.29 0.41 0.62 0.75 0.74 0.75 0.40 0.35 0.45 0.56 0.77 0.99 1.17 1.27 1.19 1.04 0.84 0.82 0.78 0.69 0.62 0.52 0.44 0.41 0.35 0.26 0.24 0.23 0.23 0.24 0.26 0.26 0.24 0.23 0.22 0.21 0.21 0.21 0.24 0.28 0.36 0.46 0.52 0.47
0.04 0.05 0.11 0.19 0.32 0.61 0.60 0.66 0.82 0.78 0.66 0.33 0.19 0.26 0.44 0.56 0.56 0.53 0.49 0.44 0.43 0.40 0.46 0.48 0.46 0.52 0.53 0.48 0.41 0.36 0.31 0.26 0.23 0.22 0.21 0.21 0.23 0.25 0.25 0.25 0.26 0.26 0.26 0.26 0.26 0.28 0.33 0.45 0.53
0.05 0.09 0.30 0.59 0.87 0.88 0.48 0.50 0.77 0.75 0.47 0.22 0.10 0.10 0.17 0.30 0.38 0.41 0.40 0.37 0.33 0.28 0.27 0.29 0.27 0.31 0.33 0.33 0.30 0.30 0.30 0.26 0.22 0.19 0.16 0.17 0.17 0.20 0.22 0.23 0.25 0.28 0.30 0.31 0.28 0.29 0.28 0.36 0.46
0.05 0.06 0.16 0.30 0.35 0.42 0.44 0.81 0.89 0.48 0.25 0.12 0.05 0.04 0.09 0.16 0.22 0.26 0.26 0.27 0.24 0.19 0.18 0.16 0.16 0.18 0.18 0.16 0.16 0.18 0.20 0.19 0.19 0.23 0.18 0.17 0.19 0.20 0.20 0.20 0.19 0.22 0.27 0.32 0.34 0.32 0.33 0.36 0.38
0.04 0.03 0.05 0.07 0.12 0.31 0.54 0.77 0.57 0.28 0.18 0.07 0.03 0.02 0.04 0.08 0.10 0.10 0.11 0.13 0.14 0.13 0.13 0.12 0.13 0.12 0.11 0.09 0.10 0.11 0.13 0.15 0.17 0.19 0.18 0.17 0.22 0.21 0.20 0.20 0.20 0.22 0.24 0.28 0.32 0.32 0.34 0.38 0.39
0.05 0.04 0.05 0.06 0.13 0.26 0.44 0.75 0.68 0.32 0.17 0.05 0.02 0.02 0.04 0.05 0.06 0.06 0.06 0.06 0.06 0.07 0.09 0.09 0.09 0.11 0.09 0.07 0.05 0.04 0.06 0.09 0.12 0.12 0.14 0.15 0.16 0.19 0.20 0.20 0.19 0.20 0.21 0.23 0.27 0.29 0.35 0.42 0.47
0.06 0.05 0.05 0.06 0.06 0.12 0.29 0.46 0.30 0.17 0.09 0.05 0.02 0.01 0.02 0.03 0.03 0.03 0.03 0.03 0.03 0.04 0.05 0.06 0.06 0.09 0.08 0.06 0.04 0.04 0.05 0.06 0.09 0.12 0.14 0.15 0.14 0.13 0.14 0.16 0.18 0.19 0.21 0.25 0.31 0.34 0.38 0.48 0.60
0.08 0.07 0.07 0.08 0.07 0.06 0.12 0.19 0.13 0.12 0.08 0.04 0.01 0.01 0.01 0.01 0.01 0.01 0.01 0.01 0.02 0.03 0.03 0.04 0.05 0.07 0.06 0.04 0.04 0.04 0.04 0.04 0.05 0.08 0.11 0.12 0.13 0.13 0.13 0.13 0.14 0.14 0.15 0.21 0.31 0.42 0.44 0.47 0.55